Location: Molveno
(46.1500°N, 10.9667°E)
Time: 08:02:41
(UTC+00:00)

Cosmos 332 Rocket - Pass Details

Date: 05 July 2020
Orbit: 682 x 703 km, 74.0° (Epoch: 05 August)

Event Time Altitude Azimuth Distance (km) Brightness Sun altitude
Rises 23:13:09 0° 338° (NNW) 3,056 8.4 -21.2°
Reaches altitude 10° 23:15:28 10° 338° (NNW) 2,136 7.3 -21.2°
Maximum altitude 23:20:17 90° 249° (WSW) 690 3.7 -21.2°
Enters shadow 23:21:28 52° 160° (SSE) 850 3.8 -21.2°
